CCM26B LFMN-LFKB

Flight info

Callsign CCM26B
Flight time 0h 27m
Altitude 13000
Route SODRI A3 NORKA
Aircraft A320/M-SDE3FGHIRWY/LB1

Departure

Time 2026-05-04 14:07
Airport Nice-Côte d'Azur Airport (LFMN)

Arrival

Time 2026-05-04 14:35
Airport Bastia-Poretta International airport (LFKB)
Time Latitude Longitude Altitude Speed Heading
2026-05-04 13:46 43.65956 7.20726 21 ft 0 kts 281°
2026-05-04 14:00 43.65951 7.20771 21 ft 2 kts 281°
2026-05-04 14:00 43.65943 7.20803 23 ft 4 kts 317°
2026-05-04 14:01 43.65921 7.20814 21 ft 4 kts 11°
2026-05-04 14:01 43.65896 7.20803 23 ft 4 kts 22°
2026-05-04 14:01 43.65854 7.20762 23 ft 2 kts 45°
2026-05-04 14:02 43.65852 7.20760 24 ft 0 kts 45°
2026-05-04 14:03 43.65854 7.20762 23 ft 1 kts 45°
2026-05-04 14:03 43.65863 7.20824 21 ft 10 kts 112°
2026-05-04 14:03 43.65806 7.20862 21 ft 8 kts 169°
2026-05-04 14:03 43.65758 7.20873 22 ft 6 kts 172°
2026-05-04 14:04 43.65718 7.20881 21 ft 5 kts 171°
2026-05-04 14:04 43.65644 7.20898 21 ft 16 kts 171°
2026-05-04 14:04 43.65504 7.20930 21 ft 24 kts 171°
2026-05-04 14:05 43.65299 7.20884 21 ft 21 kts 224°
2026-05-04 14:05 43.65184 7.20727 21 ft 23 kts 226°
2026-05-04 14:05 43.65078 7.20581 21 ft 21 kts 225°
2026-05-04 14:06 43.64979 7.20446 22 ft 19 kts 225°
2026-05-04 14:06 43.64892 7.20325 22 ft 15 kts 225°
2026-05-04 14:06 43.64808 7.20273 22 ft 13 kts 166°
2026-05-04 14:06 43.64768 7.20366 23 ft 13 kts 73°
2026-05-04 14:07 43.64891 7.20551 24 ft 54 kts 45°
2026-05-04 14:07 43.65319 7.21136 22 ft 116 kts 45°
2026-05-04 14:07 43.66003 7.22080 154 ft 149 kts 50°
2026-05-04 14:07 43.66654 7.23140 827 ft 145 kts 68°
2026-05-04 14:08 43.66687 7.24510 1453 ft 150 kts 109°
2026-05-04 14:08 43.66063 7.25690 2062 ft 156 kts 135°
2026-05-04 14:08 43.65325 7.26782 2668 ft 155 kts 121°
2026-05-04 14:08 43.64916 7.28145 3200 ft 157 kts 100°
2026-05-04 14:09 43.64638 7.31562 3730 ft 202 kts 93°
2026-05-04 14:09 43.64531 7.33622 4048 ft 228 kts 93°
2026-05-04 14:10 43.64306 7.38341 5291 ft 257 kts 94°
2026-05-04 14:10 43.64055 7.40786 6157 ft 260 kts 111°
2026-05-04 14:10 43.63005 7.42816 6966 ft 265 kts 136°
2026-05-04 14:10 43.61726 7.44664 7815 ft 268 kts 129°
2026-05-04 14:11 43.60627 7.46766 8638 ft 273 kts 125°
2026-05-04 14:11 43.58568 7.51277 10238 ft 283 kts 125°
2026-05-04 14:11 43.57477 7.53667 10533 ft 306 kts 127°
2026-05-04 14:12 43.56281 7.56221 10759 ft 329 kts 127°
2026-05-04 14:12 43.54986 7.58943 11014 ft 348 kts 126°
2026-05-04 14:12 43.52247 7.64632 12290 ft 363 kts 127°
2026-05-04 14:13 43.50831 7.67544 12858 ft 369 kts 127°
2026-05-04 14:13 43.49397 7.70487 13023 ft 371 kts 127°
2026-05-04 14:13 43.47909 7.73518 13062 ft 393 kts 127°
2026-05-04 14:13 43.46342 7.76696 13056 ft 407 kts 127°
2026-05-04 14:14 43.44746 7.79938 13054 ft 410 kts 126°
2026-05-04 14:14 43.41556 7.86451 13058 ft 411 kts 126°
2026-05-04 14:14 43.39961 7.89709 13053 ft 411 kts 127°
2026-05-04 14:15 43.36762 7.96225 13046 ft 411 kts 127°
2026-05-04 14:15 43.33545 8.02742 13057 ft 413 kts 126°
2026-05-04 14:16 43.30312 8.09278 13051 ft 414 kts 126°
2026-05-04 14:16 43.28695 8.12543 13052 ft 414 kts 126°
2026-05-04 14:17 43.25461 8.19072 13047 ft 414 kts 126°
2026-05-04 14:17 43.23846 8.22335 13039 ft 414 kts 126°
2026-05-04 14:17 43.20611 8.28858 13039 ft 413 kts 126°
2026-05-04 14:18 43.18995 8.32114 13036 ft 413 kts 126°
2026-05-04 14:18 43.15752 8.38620 13024 ft 413 kts 127°
2026-05-04 14:19 43.12496 8.45113 13029 ft 414 kts 127°
2026-05-04 14:19 43.10867 8.48359 13023 ft 414 kts 127°
2026-05-04 14:19 43.09235 8.51608 13023 ft 414 kts 127°
2026-05-04 14:19 43.07603 8.54850 13022 ft 414 kts 127°
2026-05-04 14:20 43.05966 8.58095 13014 ft 414 kts 127°
2026-05-04 14:20 43.04329 8.61333 13019 ft 414 kts 127°
2026-05-04 14:20 43.02688 8.64576 13018 ft 414 kts 127°
2026-05-04 14:21 42.99407 8.71054 13022 ft 415 kts 127°
2026-05-04 14:21 42.97774 8.74299 13014 ft 415 kts 125°
2026-05-04 14:21 42.96409 8.77784 13014 ft 418 kts 115°
2026-05-04 14:21 42.95512 8.81566 13024 ft 421 kts 104°
2026-05-04 14:22 42.95119 8.85528 13020 ft 423 kts 94°
2026-05-04 14:22 42.95012 8.89544 13027 ft 423 kts 93°
2026-05-04 14:22 42.94905 8.93561 13023 ft 424 kts 93°
2026-05-04 14:22 42.94794 8.97578 13023 ft 424 kts 94°
2026-05-04 14:23 42.94554 9.05594 12918 ft 417 kts 94°
2026-05-04 14:23 42.94435 9.09506 12252 ft 411 kts 93°
2026-05-04 14:23 42.94316 9.13389 11565 ft 408 kts 93°
2026-05-04 14:24 42.94198 9.17237 10957 ft 403 kts 93°
2026-05-04 14:24 42.94083 9.20971 10815 ft 384 kts 93°
2026-05-04 14:24 42.93973 9.24529 10699 ft 367 kts 93°
2026-05-04 14:24 42.93867 9.27930 10580 ft 351 kts 93°
2026-05-04 14:25 42.93765 9.31186 10457 ft 337 kts 93°
2026-05-04 14:25 42.93568 9.37331 10216 ft 312 kts 94°
2026-05-04 14:25 42.93472 9.40248 10048 ft 304 kts 94°
2026-05-04 14:26 42.93374 9.43107 9681 ft 302 kts 94°
2026-05-04 14:26 42.93274 9.45982 9255 ft 301 kts 94°
2026-05-04 14:26 42.93177 9.48820 8856 ft 299 kts 94°
2026-05-04 14:26 42.93081 9.51643 8524 ft 295 kts 95°
2026-05-04 14:27 42.92969 9.54377 8404 ft 282 kts 100°
2026-05-04 14:27 42.92317 9.56786 8279 ft 265 kts 128°
2026-05-04 14:27 42.90995 9.58389 8115 ft 249 kts 156°
2026-05-04 14:27 42.89375 9.58976 7665 ft 239 kts 181°
2026-05-04 14:28 42.87749 9.58593 7065 ft 238 kts 195°
2026-05-04 14:28 42.86157 9.57992 6545 ft 235 kts 194°
2026-05-04 14:28 42.84594 9.57351 5969 ft 234 kts 201°
2026-05-04 14:28 42.83157 9.56391 5513 ft 227 kts 205°
2026-05-04 14:29 42.80353 9.54496 4596 ft 223 kts 204°
2026-05-04 14:29 42.77562 9.52633 3835 ft 223 kts 203°
2026-05-04 14:30 42.76189 9.51713 3591 ft 217 kts 203°
2026-05-04 14:30 42.74835 9.50805 3213 ft 219 kts 202°
2026-05-04 14:30 42.72156 9.49010 2777 ft 207 kts 201°
2026-05-04 14:31 42.70920 9.48175 2679 ft 190 kts 202°
2026-05-04 14:31 42.68636 9.46642 2559 ft 174 kts 201°
2026-05-04 14:32 42.66503 9.45304 2078 ft 165 kts 195°
2026-05-04 14:32 42.65420 9.44997 1844 ft 154 kts 180°
2026-05-04 14:32 42.64419 9.44964 1774 ft 138 kts 173°
2026-05-04 14:32 42.63477 9.45078 1594 ft 136 kts 168°
2026-05-04 14:33 42.62556 9.45324 1383 ft 133 kts 163°
2026-05-04 14:33 42.61644 9.45683 1155 ft 139 kts 162°
2026-05-04 14:33 42.60721 9.46083 974 ft 138 kts 163°
2026-05-04 14:33 42.59825 9.46454 821 ft 128 kts 161°
2026-05-04 14:34 42.58995 9.46804 633 ft 125 kts 161°
2026-05-04 14:34 42.58153 9.47146 436 ft 126 kts 158°
2026-05-04 14:34 42.57316 9.47510 267 ft 127 kts 158°
2026-05-04 14:34 42.56487 9.47861 91 ft 122 kts 158°
2026-05-04 14:35 42.55734 9.48180 27 ft 96 kts 162°
2026-05-04 14:35 42.55265 9.48374 37 ft 48 kts 162°
2026-05-04 14:35 42.55077 9.48452 36 ft 18 kts 163°
2026-05-04 14:35 42.54989 9.48426 35 ft 15 kts 238°
2026-05-04 14:36 42.54959 9.48304 35 ft 12 kts 254°
2026-05-04 14:36 42.54904 9.48248 35 ft 13 kts 171°
2026-05-04 14:36 42.54808 9.48287 35 ft 15 kts 162°
2026-05-04 14:36 42.54704 9.48332 35 ft 16 kts 162°
2026-05-04 14:37 42.54658 9.48351 35 ft 3 kts 163°
2026-05-04 14:37 42.54627 9.48364 35 ft 4 kts 163°
2026-05-04 14:37 42.54613 9.48352 35 ft 4 kts 232°
2026-05-04 14:37 42.54616 9.48308 35 ft 4 kts 283°
2026-05-04 14:38 42.54622 9.48272 35 ft 4 kts 283°
2026-05-04 14:38 42.54626 9.48250 35 ft 0 kts 283°